Location: NJAA Observatory
(40.6819°N, 74.8979°W)
Time: 09:47:38
(UTC-05:00)

Daily predictions for brighter satellites

Satellite Brightness Start Highest point End
(mag) Time Altitude Azimuth Time Altitude Azimuth Time Altitude Azimuth
Cosmos 2150 Rocket 4.4 16:52:17 10° S 16:57:29 48° ESE 17:02:44 10° NNE
NOSS 2-3 (E) 3.9 16:53:01 10° SSW 16:57:36 88° NW 17:02:57 10° NE
ATLAS 3B R/B 3.3 16:56:17 10° NNW 17:02:11 31° NE 17:07:55 10° ESE
Cosmos 1666 3.9 16:59:33 10° NNE 17:02:30 21° ENE 17:05:24 10° SE
Cosmos 1975 Rocket 3.2 16:59:23 10° S 17:03:45 56° E 17:08:09 10° NNE
IRAS Rocket 4.2 17:01:01 10° SSE 17:06:26 65° ENE 17:11:52 10° N
SJ 16-02 3.2 17:06:23 10° ESE 17:08:28 13° E 17:10:33 10° ENE
BREEZE-M DEB (TANK) 3.8 17:08:49 10° WNW 17:10:40 21° N 17:13:31 10° NE
Okean 1 Rocket 3.8 17:06:48 10° NNW 17:11:13 59° W 17:15:37 10° S
USA 215 3.4 17:05:32 10° SE 17:12:05 85° SW 17:18:40 10° NW
CSL-04 Debris 4.1 17:08:54 10° SSE 17:14:13 66° ENE 17:19:34 10° N
Cosmos 1634 Rocket 4.2 17:10:33 10° SSW 17:16:44 76° W 17:23:01 10° N
Hubble Space Telescope 3.3 17:16:13 10° SSW 17:18:33 15° S 17:20:53 10° SE
USA 161 3.8 17:19:56 10° NNW 17:22:20 25° WNW 17:24:48 10° SW
Cosmos 1655 Rocket 4.0 17:22:00 10° N 17:28:24 74° E 17:34:46 10° SSE
Cosmos 1536 Rocket 4.2 17:28:04 10° SSE 17:31:58 33° E 17:35:52 10° NNE
Meteor 1-12 Rocket 4.3 17:29:17 10° N 17:34:59 89° WSW 17:40:44 10° S
EO 1 Del DPAF 4.3 17:32:41 14° NE 17:35:06 25° E 17:38:17 10° SSE
CSL-04 Rocket 4.0 17:30:13 10° S 17:35:36 73° WSW 17:41:06 10° NNW
Meteor 1-28 Rocket 3.1 17:32:12 10° NNE 17:35:57 84° ESE 17:39:43 10° S
Aureole 1 Rocket 4.3 17:32:35 10° NNW 17:38:32 80° WSW 17:46:09 10° SSE
FENGYUN 3A 4.3 17:34:25 10° SE 17:39:09 33° ENE 17:43:53 10° N
Ariane Rocket 3.2 17:34:34 10° S 17:39:38 76° WSW 17:44:42 10° NNW
Cosmos 1743 2.6 17:36:44 10° N 17:40:37 77° E 17:44:29 10° SSE
Cosmos 1697 Rocket 3.9 17:38:17 10° SSE 17:42:28 22° E 17:44:23 18° ENE
SKYMED 2 4.0 17:38:57 10° NNE 17:43:05 42° E 17:47:11 10° S
Cosmos 2266 Rocket 4.2 17:37:20 10° N 17:43:09 45° ENE 17:49:00 10° SSE
CENTAUR R/B 4.3 17:39:11 10° NNW 17:44:32 20° NNE 17:47:34 16° NE
Cosmos 389 Rocket 2.6 17:41:18 10° NNW 17:44:47 76° W 17:48:13 10° S
CZ-2C R/B 3.7 17:42:05 10° NNE 17:46:47 82° ESE 17:51:32 10° SSW
METEOR-M 4.1 17:42:29 10° SSE 17:47:44 63° ENE 17:53:01 10° N
Cosmos 2082 4.1 17:43:02 10° N 17:48:18 40° ENE 17:53:32 10° SE
Cosmos 1125 Rocket 3.9 17:44:28 10° S 17:49:27 43° ESE 17:53:17 16° NE
SMAP 3.7 17:45:40 10° S 17:50:14 59° W 17:54:50 10° NNW
IRS-1A Rocket 4.2 17:44:55 10° SSE 17:50:32 83° ENE 17:56:06 10° NNW
Atlas Centaur 2 3.6 17:51:28 10° WSW 17:55:26 23° S 17:58:50 10° SE
Cosmos 1048 Rocket 4.3 17:54:11 10° N 17:59:21 45° ENE 18:04:29 10° SE
Meteor 1-23 Rocket 4.5 17:55:38 10° SSE 18:01:06 47° E 18:06:17 11° NNE
ALOS 2.4 17:57:04 10° SSE 18:01:33 50° ENE 18:06:04 10° N
Landsat 4 3.6 17:58:14 11° NNE 18:01:56 88° ESE 18:05:45 10° SSW
USA 238 DEB 3.7 17:55:26 10° NNW 18:02:33 71° NE 18:09:44 10° SE
Cosmos 2227 Rocket 2.1 17:56:58 10° NNW 18:02:38 65° ENE 18:08:14 10° SSE
USA 238 3.7 17:55:32 10° NNW 18:02:40 71° NE 18:09:50 10° SE
DELTA 2 R/B (1) 3.6 17:57:53 10° WSW 18:03:27 77° S 18:06:33 27° E
Cosmos 2219 4.4 17:59:43 10° NW 18:05:02 45° WSW 18:10:20 10° S
Cosmos 1271 Rocket 3.6 18:04:32 10° NNW 18:08:14 50° W 18:11:56 10° S
Cosmos 1455 Rocket 3.6 18:05:55 10° NNW 18:10:17 61° W 18:14:36 10° S
Meteor 2-9 Rocket 4.1 18:07:48 10° N 18:13:23 87° E 18:18:45 10° S
Cosmos 1544 Rocket 4.5 18:09:54 10° NNW 18:14:07 50° W 18:18:18 10° SSW
YAOGAN 1 3.2 18:12:28 10° S 18:16:43 56° W 18:20:59 10° NNW
ERS-2 2.1 18:15:48 10° SSE 18:19:27 84° WSW 18:23:08 10° NNW
ISS -3.9 18:16:43 10° NW 18:19:54 77° N 18:19:54 77° N
Cosmos 372 Rocket 3.9 18:15:01 10° SSW 18:20:13 80° ESE 18:23:18 25° NNE
Abrixas rocket 3.7 18:18:37 10° WNW 18:21:25 26° NNW 18:21:25 26° NNW
Cosmos 1980 Rocket 3.3 18:17:15 10° SSE 18:20:54 25° ESE 18:20:54 25° ESE
BREEZE-M DEB (TANK) 4.1 18:19:23 10° NW 18:22:26 47° NNE 18:23:32 40° ENE
CZ-4 R/B 3.4 18:19:46 10° SSW 18:23:07 29° W 18:26:33 10° NW
Cosmos 2297 Rocket 2.1 18:24:08 10° NNW 18:29:50 89° WSW 18:35:29 10° SSE
COSMO-SKYMED 1 3.2 18:27:10 12° N 18:31:08 55° WNW 18:35:21 10° SSW
NOSS 3-2 (A) 3.9 18:25:55 10° NNW 18:33:26 67° NE 18:40:03 17° SE
NOSS 3-2 (C) 4.0 18:31:36 10° NNW 18:39:01 58° NE 18:42:30 35° ESE
Meteor 2-4 Rocket 4.4 18:35:22 10° SSW 18:40:41 51° WNW 18:45:57 10° N
Okean 2 4.1 18:36:40 10° S 18:39:28 42° SSE 18:39:28 42° SSE
ATLAS 2AS CENTAUR R/B 3.9 18:37:51 10° WSW 18:45:18 45° NW 18:51:14 17° NNE
SJ 16-02 2.0 18:42:16 10° SW 18:46:32 52° WNW 18:48:01 35° NNW
Meteor 1-15 Rocket 4.4 18:44:23 10° NNW 18:50:20 80° W 18:56:14 10° S
SPOT 3 Rocket 4.2 18:45:49 10° S 18:50:53 54° W 18:55:58 10° NNW
Cosmos 1656 3.9 18:45:27 10° SSW 18:51:00 66° WNW 18:53:14 36° N
ATLAS 3B R/B 3.1 18:46:44 10° NW 18:53:12 57° WSW 18:59:31 10° SSE
Meteor 2-11 Rocket 4.4 18:50:51 10° S 18:57:01 85° W 19:00:57 24° N
Cosmos 1241 Rocket 4.3 18:51:34 10° SSW 18:57:57 84° ESE 18:59:03 63° NE
Cosmos 2369 4.4 18:53:18 10° SW 18:58:48 50° WNW 19:01:30 28° N
Hubble Space Telescope 3.3 18:57:07 10° SW 18:59:01 13° S 18:59:11 13° S
Cosmos 2278 4.4 18:55:05 10° SW 19:00:36 51° WNW 19:03:06 30° N
Thor Agena Rocket 4.0 19:06:52 51° S 19:06:52 51° S 19:10:47 10° SSW
NOSS 3-4 (A) 3.3 18:59:48 10° SSW 19:06:01 86° SE 19:06:29 77° NE
NOSS 3-4 (C) 3.3 18:59:54 10° SSW 19:06:07 85° ESE 19:06:32 78° ENE
Gbstr 26 Del rocket 4.2 19:01:40 10° SW 19:09:40 88° NW 19:10:44 69° NE
Cosmos 1025 Rocket 4.3 19:10:57 10° SSW 19:14:01 37° WSW 19:14:01 37° WSW
Cosmos 1697 Rocket 3.3 19:20:30 10° SW 19:26:00 52° WNW 19:26:11 51° NW
CENTAUR R/B 3.6 19:29:08 10° NNW 19:34:48 46° N 19:34:48 46° N
Cosmos 1980 Rocket 4.1 20:00:18 10° SW 20:02:45 24° WSW 20:02:45 24° WSW
